Weather in Ustrzyki Dolne

Poland     49°25′47″N   22°34′56″E
temp.,
°C
wind,
m/s
gust,
m/s
humid.,
%
clouds,
%
prec.,
mm/h
press.,
hPa
HPBL,
m
20 april, tue
tue2023:00+5ene179586 0.0 1015347
02:00+4nne119779 0.1 101422
05:00+2nne119899 0.0 101410
08:00+6ne138848 0.0 1014385
11:00+10ne346914 0.8 10131084
14:00+12ne334864 1.4 10111839
17:00+11n345782 0.4 10111127
20:00+6nw118250 0.9 101310
21 april, wed
wed2123:00+4sw118822 0.0 101410
02:00+3sw119238 0.0 101411
05:00+3ssw119316 0.0 101411
08:00+8sw247512 0.0 1014243
11:00+12w454986 0.1 10131812
14:00+11wsw467076 0.6 1013992
17:00+9wsw498334 1.7 1013533
20:00+7ssw31190100 2.6 1014385
22 april, thu
thu2223:00+7ssw269311 0.1 1014124
02:00+5s259744 0.2 101490
05:00+6wsw2997100 0.3 1014395
08:00+8ssw4892100 0.9 1014449
11:00+10ssw5674100 0.8 10141102
14:00+9w4786100 2.4 10141041
17:00+3nw2797100 11.1 1017384
20:00+3w1395100 11.1 1018265
23 april, fri
fri2323:00+2sw1297100 0.0 101947
02:000wsw119694 0.0 102011
05:00−1sw119694 0.0 102114
08:00+2wnw37845 0.0 1022612
11:00+6wnw3654100 0.1 10211972
14:00+5w3575100 0.7 1021968
17:00+5w4579100 0.9 1020871
20:00+3nw4109099 2.4 10221076
24 april, sat
sat2423:000wnw3109740 0.0 1024498
02:00−2wsw289817 0.0 1024243
05:00−2w399634 0.0 1025393
08:00+1w47755 0.0 1025657
11:00+6wnw5748100 0.0 10231902
14:00+9wnw4838100 0.0 10212289
17:00+8wnw4748100 0.0 10201693
20:00+4ssw4782100 0.0 1021387